Location: ????? ???????
(25.7275°N, 32.5929°E)
Time: 10:20:37
(UTC+00:00)

SL-16 R/B - Pass Details

Date: 02 March 2021
Orbit: 843 x 845 km, 71.0° (Epoch: 16 April)

Event Time Altitude Azimuth Distance (km) Brightness Sun altitude
Rises 16:13:04 0° 208° (SSW) 3,384 5.8 -5.6°
Reaches altitude 10° 16:15:33 10° 212° (SSW) 2,452 5.2 -6.1°
Maximum altitude 16:21:04 57° 290° (WNW) 988 3.0 -7.4°
Drops below altitude 10° 16:26:37 10° 9° (N) 2,463 4.5 -8.6°
Sets 16:29:07 0° 13° (NNE) 3,401 5.2 -9.2°
